カタログに戻る

STARLINK-3327

運用中通信VLEO
NORAD 50819·PAYLOAD·🇺🇸 United States

打ち上げ Jan 6, 2022 から Cape Canaveral Space Force Station

Loading…

次のパス (今後24時間)

TLE

最新Source: CelesTrak SupGP

元期: Sep 15, 2026, 01:29 UTC

1 50819C 22001S   26258.06229167 -.00022891  00000+0 -67641-3 0  2582
2 50819  53.1595  27.4972 0000990  87.3654 343.5717 15.34397944    15

AllMySatでSTARLINK-3327をリアルタイム追跡

Download on the App Store